星链-3711 (STARLINK-3711 )

导读 | 星芒AI

STARLINK-3711 是 SpaceX Starlink 卫星互联网项目中的第 3711 颗卫星,属于“星链”计划的中轨道卫星群。该卫星旨在为全球用户提供高速、低延迟的宽带互联网服务,尤其服务于传统网络难以覆盖的偏远地区。它采用先进的推进系统和激光通信技术,提升网络效率与稳定性。作为星链计划的一部分,STARLINK-3711 有助于构建更完善的全球互联网覆盖体系,推动数字连接的普及。

基本信息
目录编号:
52131
目录名称:
STARLINK-3711
国际标识:
2022-029AV
轨道中心:
EARTH
卫星名称:
星链-3711
卫星全名:
星链-3711 (STARLINK-3711 )
卫星状态:
在轨 (已飞行1326 天)
发射日期:
2022-03-19 UTC
国别 :
美国 (US)
星等 :
--
轨道信息
数据来源 国际轨道数据
星历时间: 2025-11-04T13:11:40+0800
14小时前
查看轨道信息
半长轴: 6917.869km
偏心率: 0.000167
轨道倾角: 53.218°
近地点辐角 86.503°
升交点赤经 272.391°
平近点角 273.615°
近地点: 538.578km
远地点: 540.89km
周期: 95.437分钟
每日圈数: 15.088438
详细信息
固有亮度:
5
最大亮度:
2.5
卫星平台:
Starlink v1.5
覆盖范围:
全球
运营商:
太空探索技术公司
运营商所在国:
美国
制造商(研发单位):
太空探索技术公司
制造商所在国:
美国
使用方式:
暂无
卫星简介
星链(Starlink)计划是由太空探索技术公司(SpaceX)提出的一个巨型低轨卫星互联网星座项目,计划在2019年至2024年间在太空搭建由约1.2万颗卫星组成的“星链”网络,其中1584颗将部署在地球上空550千米处的近地轨道,并从2020年开始工作。该卫星仍在工作。
2D轨道图
3D轨道图
轨道高度分析图
轨道倾角分析图
轨道综合分析图
查看轨道综合分析图